OBJECT X, 68437

Orbit data source: Space-Track

You're viewing an Uncataloged Satellite

Recently launched and/or uncataloged satellites may have evolving metadata. Metadata may include but not limited to: Owner, Maufacturer, Bus, Motor, and Mission.

OBJECT X, 68437 is a satellite in SSO that was launched on Mon, 30 Mar 2026 UTC via an FALCON 9 launch vehicle from the Air Force Western Test Range (AFWTR). Unknown objects in Earth's orbit typically refer to objects detected orbiting the Earth but have not yet been identified or cataloged. These objects could be anything from previously untracked satellites, spent rocket stages, debris from satellite collisions, or even natural meteoroids temporarily captured by Earth's gravity.

Loading next visibility...
Identifier
68437, 2026-067X
Orbit
SSO
Country
Flag of TBDTBD
Related business
None
Manufacturer
Unknown
Mission
Operational spacecraft
Bus & Motor
Unknown
Mass
Unknown
Launch date (UTC)
2026-03-30 (1 month ago)
Launch vehicle
FALCON 9
Launch site
Air Force Western Test Range (AFWTR)
Object type
Unknown
Shape & HBR
Unknown shape, 1.1 m
Radar Cross Section
RCS unknown

Expand to show TLE details & history
Last TLE update: 9 hours ago

TLE from 9 hours ago
0 OBJECT X
1 68437U 26067X   26127.13945918  .00011516  00000-0  56015-3 0  9991
2 68437  97.4490  86.1997 0003511 141.7174 218.4310 15.18556237  5713
Epoch: 2026-05-07T03:20Z
TLE epoch observation values (Epoch: 2026-05-07T03:20:49.273Z)
Latitude
-0°
Longitude
171.00451°
Altitude
515.186 km
Speed
7.605 km/s
True Right ascension
05h 44m 47s
True Declination
0° 00' 00"
Sunlit
Object was in daylight at epoch
Visualization orbit readout
Latitude
Unknown
Longitude
Unknown
Altitude
Unknown
Speed
Unknown
Apparent Right ascension
Unknown
Apparent Declination
Unknown
Sunlit
N/A
Visualization observer readout
Local Sidereal Time
20:04:22
Azimuth
Unknown
Elevation
Unknown
Doppler factor
Unknown
Orbital elements
Apogee altitude
509.59 km
Perigee altitude
504.755 km
Semi-major axis
6,885.31 km
Eccentricity
0.00035
Inclination
97.449°
RAAN
86.1997°
Arg. of periapsis
141.7174°
True anomaly
218.406°
Mean anomaly
218.431°
Eccentric anomaly
218.4185°
Mean motion
3.7989 °/min
Orbital period
94.76 mins
BSTAR
0.00056015
Loading maneuver chart data...
Computing Atmospheric mass density...
Loading historical data...
Loading historical data...
Loading historical data...
Loading historical data...
Loading historical data...
Loading historical data...
Loading historical data...

Documentation

Showing up to 5 results
|